This demonstration page uses our WeatherBlox Daily Observations layout. Learn more.

Left ArrowRight Arrow

Hourly Observations for December 4, 2021

Temp ( °F °C ) Dew Point ( °F °C ) Humidity (%) Winds ( mph kmh ) Pressure ( in mb ) Visibility ( mi km ) Precip ( " mm )
12:53 am 00:53 Clear 40 4.4 32 0 73 73 Calm 30.04 1017 10 16 0.00 0.00
1:53 am 01:53 Clear 40 4.4 33 0.6 77 77 NNE 5 7 30.06 1018 10 16 0.00 0.00
2:53 am 02:53 Clear 37 2.8 32 0 82 82 VRB 3 6 30.09 1019 10 16 0.00 0.00
3:53 am 03:53 Clear 33 0.6 31 -0.6 92 92 Calm 30.10 1019 10 16 0.00 0.00
4:53 am 04:53 Clear 34 1.1 31 -0.6 89 89 Calm 30.12 1020 10 16 0.00 0.00
5:53 am 05:53 Clear 36 2.2 32 0 86 86 NNE 6 9 30.15 1021 10 16 0.00 0.00
6:53 am 06:53 Clear 32 0 30 -1.1 92 92 Calm 30.18 1022 10 16 0.00 0.00
7:53 am 07:53 Sunny 31 -0.6 30 -1.1 96 96 Calm 30.23 1024 7 11 0.00 0.00
8:53 am 08:53 Sunny 35 1.7 32 0 89 89 NW 3 6 30.26 1025 10 16 0.00 0.00
9:53 am 09:53 Mostly Sunny 41 5 34 1.1 76 76 Calm 30.27 1025 10 16 0.00 0.00
10:53 am 10:53 Sunny 46 7.8 35 1.7 66 66 VRB 6 9 30.28 1026 10 16 0.00 0.00
11:53 am 11:53 Sunny 47 8.3 34 1.1 61 61 VRB 5 7 30.28 1025 10 16 0.00 0.00
12:53 pm 12:53 Sunny 50 10 33 0.6 52 52 NE 6 9 30.25 1024 10 16 0.00 0.00
1:53 pm 13:53 Sunny 52 11.1 31 -0.6 45 45 N 6 9 30.25 1025 10 16 0.00 0.00
2:53 pm 14:53 Sunny 52 11.1 25 -3.9 35 35 NNE 5 7 30.24 1024 10 16 0.00 0.00
3:53 pm 15:53 Sunny 50 10 25 -3.9 38 38 N 6 9 30.25 1025 10 16 0.00 0.00
4:53 pm 16:53 Sunny 47 8.3 23 -5 39 39 N 5 7 30.28 1025 10 16 0.00 0.00
5:53 pm 17:53 Clear 37 2.8 24 -4.4 59 59 Calm 30.29 1026 10 16 0.00 0.00
6:53 pm 18:53 Clear 33 0.6 24 -4.4 70 70 Calm 30.31 1027 10 16 0.00 0.00
7:53 pm 19:53 Clear 32 0 23 -5 69 69 Calm 30.31 1026 10 16 0.00 0.00
8:53 pm 20:53 Clear 29 -1.7 24 -4.4 82 82 Calm 30.31 1027 10 16 0.00 0.00
9:53 pm 21:53 Clear 32 0 25 -3.9 75 75 N 5 7 30.31 1026 10 16 0.00 0.00
10:53 pm 22:53 Clear 27 -2.8 23 -5 85 85 Calm 30.32 1027 10 16 0.00 0.00
11:53 pm 23:53 Clear 26 -3.3 21 -6.1 81 81 Calm 30.31 1026 10 16 0.00 0.00

Powered by AerisWeather